| time (UTC) | temp C | wind direction | speed KPH | gust KPH | rain 1hr cm | rain 24hr cm | rain mn cm | humidity % | barometer mb |
| 20260905195055 | 12 | 264 | 12.9 | 37.0 | 0.03 | 0.86 | 0.48 | 92 | 1015.2 |
| 20260905194555 | 12 | 248 | 14.5 | 37.0 | 0.03 | 0.86 | 0.48 | 92 | 1015.2 |
| 20260905194057 | 12 | 261 | 8.0 | 24.1 | 0.05 | 0.86 | 0.48 | 92 | 1015.2 |
| 20260905193556 | 12 | 226 | 6.4 | 24.1 | 0.08 | 0.86 | 0.48 | 91 | 1015.3 |
| 20260905193054 | 12 | 268 | 8.0 | 22.5 | 0.08 | 0.86 | 0.48 | 91 | 1015.2 |
| 20260905192554 | 12 | 265 | 6.4 | 32.2 | 0.08 | 0.86 | 0.48 | 91 | 1015.2 |
| 20260905192054 | 12 | 242 | 14.5 | 29.0 | 0.08 | 0.86 | 0.48 | 91 | 1015.1 |
| 20260905191557 | 12 | 285 | 4.8 | 27.4 | 0.08 | 0.86 | 0.48 | 91 | 1014.9 |
| 20260905191053 | 12 | 253 | 6.4 | 27.4 | 0.08 | 0.86 | 0.48 | 90 | 1014.9 |
| 20260905190553 | 12 | 217 | 9.7 | 24.1 | 0.08 | 0.86 | 0.48 | 90 | 1014.9 |
| 20260905190105 | 13 | 260 | 4.8 | 24.1 | 0.08 | 0.86 | 0.48 | 90 | 1015.0 |
| 20260905185551 | 13 | 288 | 12.9 | 37.0 | 0.05 | 0.84 | 0.46 | 89 | 1015.1 |
| 20260905185049 | 13 | 271 | 12.9 | 51.5 | 0.05 | 0.84 | 0.46 | 89 | 1015.3 |
| 20260905184605 | 13 | 232 | 20.9 | 51.5 | 0.05 | 0.81 | 0.43 | 87 | 1015.3 |
| 20260905184049 | 13 | 300 | 17.7 | 64.4 | 0.03 | 0.79 | 0.43 | 87 | 1015.4 |
| 20260905183549 | 13 | 275 | 38.6 | 66.0 | 0.00 | 0.79 | 0.41 | 86 | 1015.4 |
| 20260905183048 | 13 | 275 | 25.7 | 103.0 | 0.00 | 0.79 | 0.41 | 87 | 1015.4 |
| 20260905182547 | 13 | 290 | 40.2 | 103.0 | 0.00 | 0.79 | 0.41 | 88 | 1015.2 |
| 20260905181545 | 13 | 225 | 9.7 | 17.7 | 0.03 | 0.79 | 0.41 | 92 | 1015.0 |
| 20260905181044 | 13 | 227 | 6.4 | 17.7 | 0.03 | 0.79 | 0.41 | 92 | 1014.5 |
| 20260905180544 | 13 | 210 | 3.2 | 14.5 | 0.03 | 0.79 | 0.41 | 92 | 1014.6 |
| 20260905180044 | 13 | 219 | 6.4 | 14.5 | 0.03 | 0.79 | 0.41 | 92 | 1014.6 |
| 20260905175546 | 13 | 232 | 3.2 | 17.7 | 0.03 | 0.79 | 0.41 | 92 | 1014.7 |
| 20260905175044 | 13 | 265 | 4.8 | 24.1 | 0.03 | 0.79 | 0.41 | 91 | 1014.6 |
| 20260905174550 | 13 | 272 | 8.0 | 25.7 | 0.03 | 0.79 | 0.41 | 91 | 1014.5 |
| 20260905174042 | 13 | 258 | 9.7 | 45.1 | 0.03 | 0.79 | 0.41 | 91 | 1014.7 |
| 20260905173541 | 13 | 275 | 9.7 | 48.3 | 0.03 | 0.79 | 0.41 | 91 | 1014.6 |
| 20260905173041 | 13 | 279 | 17.7 | 51.5 | 0.03 | 0.79 | 0.41 | 91 | 1014.7 |
| 20260905172540 | 13 | 267 | 24.1 | 51.5 | 0.03 | 0.79 | 0.41 | 91 | 1014.6 |
| 20260905172039 | 13 | 285 | 20.9 | 51.5 | 0.03 | 0.76 | 0.38 | 91 | 1014.7 |
| 20260905171539 | 14 | 234 | 6.4 | 17.7 | 0.05 | 0.76 | 0.38 | 91 | 1014.5 |
| 20260905171038 | 14 | 233 | 1.6 | 6.4 | 0.15 | 0.76 | 0.38 | 91 | 1014.2 |
| 20260905170540 | 14 | 240 | 0.0 | 0.0 | 0.30 | 0.76 | 0.38 | 91 | 1014.1 |
| 20260905170040 | 14 | 277 | 0.0 | 6.4 | 0.33 | 0.76 | 0.38 | 91 | 1014.1 |
| 20260905165537 | 14 | 277 | 0.0 | 8.0 | 0.33 | 0.76 | 0.38 | 90 | 1014.0 |
| 20260905165036 | 14 | 290 | 0.0 | 8.0 | 0.33 | 0.76 | 0.38 | 91 | 1014.0 |
| 20260905164536 | 14 | 279 | 0.0 | 4.8 | 0.33 | 0.76 | 0.38 | 90 | 1014.0 |
| 20260905164035 | 14 | 279 | 0.0 | 6.4 | 0.33 | 0.76 | 0.38 | 90 | 1014.1 |
| 20260905163536 | 14 | 279 | 0.0 | 17.7 | 0.33 | 0.76 | 0.38 | 90 | 1014.1 |
| 20260905163036 | 14 | 282 | 4.8 | 25.7 | 0.33 | 0.76 | 0.38 | 89 | 1014.1 |
| 20260905162535 | 15 | 292 | 8.0 | 27.4 | 0.33 | 0.76 | 0.38 | 89 | 1014.2 |
| 20260905162035 | 15 | 259 | 14.5 | 49.9 | 0.33 | 0.71 | 0.36 | 88 | 1014.7 |
| 20260905161031 | 16 | 245 | 17.7 | 30.6 | 0.18 | 0.61 | 0.23 | 84 | 1014.7 |
| 20260905160530 | 16 | 291 | 9.7 | 19.3 | 0.05 | 0.46 | 0.08 | 82 | 1014.1 |
| 20260905160031 | 16 | 240 | 0.0 | 12.9 | 0.00 | 0.43 | 0.05 | 80 | 1013.5 |
| 20260905155531 | 17 | 236 | 1.6 | 12.9 | 0.00 | 0.43 | 0.05 | 78 | 1013.5 |
| 20260905155029 | 17 | 229 | 0.0 | 6.4 | 0.00 | 0.43 | 0.05 | 77 | 1013.4 |
| 20260905154529 | 17 | 294 | 0.0 | 11.3 | 0.00 | 0.43 | 0.05 | 77 | 1013.5 |
| 20260905154030 | 17 | 294 | 1.6 | 11.3 | 0.00 | 0.43 | 0.05 | 77 | 1013.3 |
| 20260905153529 | 17 | 294 | 0.0 | 11.3 | 0.00 | 0.43 | 0.05 | 79 | 1013.3 |
| 20260905153029 | 16 | 339 | 1.6 | 17.7 | 0.00 | 0.43 | 0.05 | 79 | 1013.5 |
| 20260905152529 | 16 | 295 | 0.0 | 17.7 | 0.00 | 0.43 | 0.05 | 78 | 1013.5 |
| 20260905152028 | 17 | 298 | 6.4 | 17.7 | 0.00 | 0.43 | 0.05 | 76 | 1013.4 |
| 20260905151529 | 17 | 296 | 6.4 | 17.7 | 0.00 | 0.43 | 0.05 | 75 | 1013.5 |
| 20260905151036 | 17 | 294 | 4.8 | 20.9 | 0.00 | 0.43 | 0.05 | 73 | 1013.5 |
| 20260905150528 | 17 | 16 | 6.4 | 29.0 | 0.00 | 0.43 | 0.05 | 72 | 1013.5 |
| 20260905150028 | 17 | 286 | 11.3 | 29.0 | 0.00 | 0.43 | 0.05 | 71 | 1013.3 |
| 20260905145528 | 18 | 360 | 14.5 | 27.4 | 0.00 | 0.43 | 0.05 | 70 | 1013.3 |
| 20260905145028 | 18 | 28 | 6.4 | 24.1 | 0.00 | 0.43 | 0.05 | 71 | 1013.3 |
| 20260905144528 | 17 | 298 | 11.3 | 24.1 | 0.00 | 0.43 | 0.05 | 74 | 1013.3 |
| 20260905144027 | 16 | 351 | 9.7 | 35.4 | 0.00 | 0.43 | 0.05 | 74 | 1013.3 |
| 20260905143527 | 16 | 340 | 12.9 | 35.4 | 0.00 | 0.43 | 0.05 | 73 | 1013.4 |
| 20260905143030 | 16 | 293 | 16.1 | 37.0 | 0.00 | 0.43 | 0.05 | 74 | 1013.4 |
| 20260905142526 | 16 | 312 | 20.9 | 56.3 | 0.00 | 0.43 | 0.05 | 73 | 1013.4 |
| 20260905142028 | 16 | 360 | 20.9 | 75.6 | 0.00 | 0.43 | 0.05 | 72 | 1013.6 |
| 20260905141529 | 17 | 269 | 33.8 | 75.6 | 0.00 | 0.43 | 0.05 | 67 | 1013.6 |
| 20260905141025 | 19 | 320 | 27.4 | 72.4 | 0.00 | 0.43 | 0.05 | 61 | 1013.5 |
| 20260905140525 | 20 | 293 | 22.5 | 41.8 | 0.00 | 0.43 | 0.05 | 58 | 1013.0 |
| 20260905140025 | 21 | 285 | 11.3 | 35.4 | 0.00 | 0.43 | 0.05 | 58 | 1013.0 |
| 20260905135525 | 21 | 269 | 17.7 | 75.6 | 0.00 | 0.43 | 0.05 | 57 | 1012.9 |
| 20260905135024 | 21 | 300 | 35.4 | 75.6 | 0.00 | 0.43 | 0.05 | 57 | 1012.9 |
| 20260905134526 | 21 | 240 | 24.1 | 49.9 | 0.00 | 0.43 | 0.05 | 57 | 1012.9 |
| 20260905134024 | 21 | 261 | 19.3 | 51.5 | 0.00 | 0.43 | 0.05 | 59 | 1012.9 |
| 20260905133524 | 20 | 278 | 32.2 | 51.5 | 0.00 | 0.43 | 0.05 | 58 | 1012.9 |
| 20260905133024 | 21 | 303 | 22.5 | 61.2 | 0.00 | 0.43 | 0.05 | 58 | 1012.9 |
| 20260905132523 | 21 | 217 | 25.7 | 61.2 | 0.00 | 0.43 | 0.05 | 58 | 1013.0 |
| 20260905132022 | 20 | 236 | 27.4 | 48.3 | 0.00 | 0.43 | 0.05 | 57 | 1013.0 |
| 20260905131541 | 20 | 298 | 20.9 | 48.3 | 0.00 | 0.43 | 0.05 | 58 | 1013.1 |
| 20260905131121 | 20 | 259 | 27.4 | 64.4 | 0.00 | 0.43 | 0.05 | 58 | 1013.0 |
| 20260905130522 | 20 | 291 | 35.4 | 64.4 | 0.00 | 0.43 | 0.05 | 57 | 1013.0 |
| 20260905130128 | 20 | 259 | 27.4 | 62.8 | 0.00 | 0.43 | 0.05 | 57 | 1013.0 |
| 20260905125520 | 20 | 177 | 22.5 | 62.8 | 0.00 | 0.43 | 0.05 | 58 | 1013.0 |
| 20260905125021 | 20 | 248 | 20.9 | 62.8 | 0.00 | 0.43 | 0.05 | 58 | 1013.0 |
| 20260905124536 | 20 | 286 | 25.7 | 64.4 | 0.00 | 0.43 | 0.05 | 56 | 1013.1 |
| 20260905124020 | 20 | 289 | 33.8 | 74.0 | 0.00 | 0.43 | 0.05 | 54 | 1013.0 |
| 20260905123520 | 20 | 338 | 24.1 | 74.0 | 0.00 | 0.43 | 0.05 | 56 | 1013.0 |
| 20260905123020 | 20 | 273 | 16.1 | 54.7 | 0.00 | 0.43 | 0.05 | 58 | 1013.1 |
| 20260905122520 | 19 | 323 | 25.7 | 56.3 | 0.00 | 0.43 | 0.05 | 59 | 1013.2 |
| 20260905122020 | 19 | 303 | 27.4 | 59.5 | 0.00 | 0.43 | 0.05 | 58 | 1013.2 |
| 20260905121524 | 20 | 292 | 20.9 | 69.2 | 0.00 | 0.43 | 0.05 | 57 | 1013.2 |
| 20260905121021 | 20 | 225 | 27.4 | 59.5 | 0.00 | 0.43 | 0.05 | 56 | 1013.2 |
| 20260905120522 | 20 | 284 | 25.7 | 51.5 | 0.00 | 0.43 | 0.05 | 58 | 1013.2 |
| 20260905120019 | 19 | 298 | 22.5 | 67.6 | 0.00 | 0.43 | 0.05 | 59 | 1013.3 |
| 20260905115517 | 20 | 312 | 25.7 | 78.9 | 0.00 | 0.43 | 0.05 | 56 | 1013.3 |
| 20260905115020 | 20 | 215 | 25.7 | 78.9 | 0.00 | 0.43 | 0.05 | 56 | 1013.2 |
| 20260905114534 | 20 | 273 | 20.9 | 66.0 | 0.00 | 0.43 | 0.05 | 59 | 1013.2 |
| 20260905114016 | 20 | 261 | 24.1 | 66.0 | 0.00 | 0.43 | 0.05 | 59 | 1013.1 |
| 20260905113515 | 20 | 271 | 30.6 | 67.6 | 0.00 | 0.43 | 0.05 | 59 | 1013.2 |
| 20260905113014 | 20 | 297 | 27.4 | 56.3 | 0.00 | 0.43 | 0.05 | 58 | 1013.2 |
| 20260905112515 | 20 | 303 | 29.0 | 74.0 | 0.00 | 0.43 | 0.05 | 58 | 1013.2 |
| 20260905112016 | 20 | 244 | 29.0 | 74.0 | 0.00 | 0.43 | 0.05 | 57 | 1013.1 |
| 20260905111516 | 20 | 238 | 32.2 | 70.8 | 0.00 | 0.43 | 0.05 | 58 | 1013.1 |
| 20260905111013 | 20 | 315 | 35.4 | 80.5 | 0.00 | 0.43 | 0.05 | 57 | 1013.1 |
| 20260905110616 | 20 | 230 | 25.7 | 80.5 | 0.00 | 0.43 | 0.05 | 58 | 1013.0 |
| 20260905110012 | 20 | 288 | 37.0 | 80.5 | 0.00 | 0.43 | 0.05 | 60 | 1013.1 |
| 20260905105511 | 20 | 301 | 24.1 | 83.7 | 0.00 | 0.43 | 0.05 | 60 | 1013.1 |
| 20260905105011 | 19 | 239 | 35.4 | 83.7 | 0.00 | 0.43 | 0.05 | 61 | 1013.0 |
| 20260905104511 | 20 | 326 | 32.2 | 75.6 | 0.00 | 0.43 | 0.05 | 58 | 1013.1 |
| 20260905104010 | 19 | 275 | 37.0 | 75.6 | 0.00 | 0.43 | 0.05 | 58 | 1013.0 |
| 20260905103512 | 20 | 192 | 29.0 | 74.0 | 0.00 | 0.43 | 0.05 | 59 | 1013.0 |
| 20260905103023 | 19 | 300 | 40.2 | 74.0 | 0.00 | 0.43 | 0.05 | 59 | 1013.0 |
| 20260905102509 | 20 | 319 | 22.5 | 70.8 | 0.00 | 0.43 | 0.05 | 61 | 1012.9 |
| 20260905102008 | 19 | 303 | 30.6 | 67.6 | 0.00 | 0.43 | 0.05 | 62 | 1012.9 |
| 20260905101515 | 18 | 289 | 22.5 | 78.9 | 0.00 | 0.43 | 0.05 | 64 | 1013.0 |
| 20260905101006 | 19 | 296 | 43.5 | 78.9 | 0.00 | 0.43 | 0.05 | 63 | 1012.8 |
| 20260905100506 | 18 | 296 | 30.6 | 54.7 | 0.00 | 0.43 | 0.05 | 67 | 1012.8 |
| 20260905100006 | 18 | 236 | 27.4 | 56.3 | 0.00 | 0.43 | 0.05 | 66 | 1012.7 |
| 20260905095505 | 18 | 269 | 29.0 | 67.6 | 0.00 | 0.43 | 0.05 | 66 | 1012.7 |
| 20260905095004 | 18 | 251 | 29.0 | 69.2 | 0.00 | 0.43 | 0.05 | 66 | 1012.7 |
| 20260905094504 | 19 | 239 | 19.3 | 61.2 | 0.00 | 0.43 | 0.05 | 66 | 1012.7 |
| 20260905094004 | 20 | 265 | 24.1 | 54.7 | 0.00 | 0.43 | 0.05 | 66 | 1012.5 |
| 20260905093501 | 18 | 294 | 27.4 | 54.7 | 0.00 | 0.43 | 0.05 | 67 | 1012.5 |
| 20260905093102 | 19 | 245 | 24.1 | 54.7 | 0.00 | 0.43 | 0.05 | 68 | 1012.6 |
| 20260905092603 | 18 | 306 | 25.7 | 54.7 | 0.00 | 0.43 | 0.05 | 69 | 1012.6 |
| 20260905092058 | 18 | 275 | 22.5 | 66.0 | 0.00 | 0.43 | 0.05 | 69 | 1012.5 |
| 20260905091609 | 18 | 247 | 27.4 | 61.2 | 0.00 | 0.43 | 0.05 | 70 | 1012.6 |
| 20260905091056 | 18 | 351 | 25.7 | 69.2 | 0.00 | 0.43 | 0.05 | 71 | 1012.6 |
| 20260905090556 | 18 | 257 | 22.5 | 69.2 | 0.00 | 0.43 | 0.05 | 70 | 1012.4 |
| 20260905090155 | 18 | 205 | 22.5 | 53.1 | 0.00 | 0.43 | 0.05 | 71 | 1012.3 |
| 20260905085554 | 18 | 251 | 29.0 | 54.7 | 0.00 | 0.43 | 0.05 | 70 | 1012.4 |
| 20260905085052 | 17 | 277 | 12.9 | 53.1 | 0.00 | 0.43 | 0.05 | 74 | 1012.3 |
| 20260905084605 | 17 | 252 | 24.1 | 51.5 | 0.00 | 0.43 | 0.05 | 72 | 1012.3 |
| 20260905084050 | 17 | 272 | 27.4 | 67.6 | 0.00 | 0.43 | 0.05 | 71 | 1012.2 |
| 20260905083550 | 18 | 277 | 32.2 | 67.6 | 0.00 | 0.43 | 0.05 | 71 | 1012.2 |
| 20260905083049 | 18 | 283 | 17.7 | 59.5 | 0.00 | 0.43 | 0.05 | 73 | 1012.1 |
| 20260905082549 | 17 | 264 | 32.2 | 61.2 | 0.00 | 0.43 | 0.05 | 73 | 1012.1 |
| 20260905082048 | 17 | 293 | 29.0 | 61.2 | 0.00 | 0.43 | 0.05 | 74 | 1012.0 |
| 20260905081547 | 17 | 307 | 19.3 | 61.2 | 0.00 | 0.43 | 0.05 | 76 | 1012.0 |
| 20260905081046 | 17 | 281 | 27.4 | 61.2 | 0.00 | 0.43 | 0.05 | 76 | 1012.0 |
| 20260905080546 | 17 | 282 | 22.5 | 57.9 | 0.00 | 0.43 | 0.05 | 77 | 1012.0 |
| 20260905080045 | 17 | 267 | 19.3 | 51.5 | 0.00 | 0.43 | 0.05 | 78 | 1012.1 |
| 20260905075547 | 17 | 235 | 22.5 | 51.5 | 0.00 | 0.43 | 0.05 | 77 | 1012.1 |
| 20260905075043 | 17 | 263 | 27.4 | 49.9 | 0.00 | 0.43 | 0.05 | 77 | 1012.0 |
| 20260905074544 | 17 | 180 | 19.3 | 48.3 | 0.00 | 0.43 | 0.05 | 77 | 1011.9 |
| 20260905074044 | 17 | 244 | 19.3 | 46.7 | 0.00 | 0.43 | 0.05 | 78 | 1011.9 |
| 20260905073542 | 17 | 284 | 16.1 | 48.3 | 0.00 | 0.43 | 0.05 | 79 | 1011.7 |
| 20260905073042 | 17 | 300 | 29.0 | 46.7 | 0.00 | 0.43 | 0.05 | 78 | 1011.8 |
| 20260905072541 | 16 | 223 | 14.5 | 54.7 | 0.00 | 0.43 | 0.05 | 81 | 1011.8 |
| 20260905072040 | 16 | 253 | 22.5 | 48.3 | 0.00 | 0.43 | 0.05 | 80 | 1011.8 |
| 20260905071539 | 17 | 244 | 22.5 | 49.9 | 0.00 | 0.43 | 0.05 | 80 | 1011.7 |
| 20260905071037 | 17 | 213 | 25.7 | 51.5 | 0.00 | 0.43 | 0.05 | 80 | 1011.5 |
| 20260905070538 | 16 | 284 | 27.4 | 56.3 | 0.00 | 0.43 | 0.05 | 81 | 1011.6 |
| 20260905070036 | 16 | 203 | 29.0 | 66.0 | 0.00 | 0.43 | 0.05 | 81 | 1011.5 |
| 20260905065635 | 16 | 265 | 30.6 | 66.0 | 0.00 | 0.43 | 0.05 | 82 | 1011.5 |
| 20260905065136 | 16 | 256 | 24.1 | 59.5 | 0.00 | 0.43 | 0.05 | 82 | 1011.4 |
| 20260905064538 | 16 | 254 | 32.2 | 57.9 | 0.00 | 0.43 | 0.05 | 82 | 1011.2 |
| 20260905064035 | 16 | 281 | 11.3 | 57.9 | 0.00 | 0.43 | 0.05 | 83 | 1011.2 |
| 20260905063532 | 16 | 238 | 19.3 | 66.0 | 0.00 | 0.43 | 0.05 | 83 | 1011.1 |
| 20260905063032 | 16 | 302 | 32.2 | 66.0 | 0.00 | 0.43 | 0.05 | 83 | 1011.2 |
| 20260905062531 | 16 | 304 | 22.5 | 46.7 | 0.00 | 0.43 | 0.05 | 83 | 1011.1 |
| 20260905062032 | 16 | 288 | 24.1 | 46.7 | 0.00 | 0.43 | 0.05 | 84 | 1011.0 |
| 20260905061530 | 16 | 294 | 14.5 | 33.8 | 0.00 | 0.43 | 0.05 | 84 | 1011.0 |
| 20260905061030 | 16 | 281 | 17.7 | 59.5 | 0.00 | 0.43 | 0.05 | 84 | 1011.0 |
| 20260905060531 | 16 | 247 | 29.0 | 59.5 | 0.00 | 0.43 | 0.05 | 85 | 1011.0 |
| 20260905060032 | 16 | 293 | 11.3 | 43.5 | 0.00 | 0.43 | 0.05 | 85 | 1010.9 |
| 20260905055531 | 16 | 296 | 19.3 | 43.5 | 0.00 | 0.43 | 0.05 | 85 | 1010.8 |
| 20260905055026 | 16 | 257 | 14.5 | 40.2 | 0.00 | 0.43 | 0.05 | 86 | 1010.8 |
| 20260905054527 | 16 | 263 | 19.3 | 49.9 | 0.00 | 0.43 | 0.05 | 86 | 1010.7 |
| 20260905054025 | 16 | 219 | 9.7 | 46.7 | 0.00 | 0.43 | 0.05 | 87 | 1010.6 |
| 20260905053524 | 15 | 213 | 17.7 | 40.2 | 0.00 | 0.43 | 0.05 | 87 | 1010.6 |
| 20260905053024 | 16 | 217 | 19.3 | 54.7 | 0.00 | 0.43 | 0.05 | 87 | 1010.6 |
| 20260905052524 | 16 | 267 | 16.1 | 38.6 | 0.00 | 0.43 | 0.05 | 87 | 1010.7 |
| 20260905052022 | 16 | 276 | 9.7 | 40.2 | 0.00 | 0.43 | 0.05 | 87 | 1010.6 |
| 20260905051532 | 16 | 263 | 9.7 | 35.4 | 0.00 | 0.43 | 0.05 | 87 | 1010.4 |
| 20260905051019 | 16 | 254 | 14.5 | 35.4 | 0.00 | 0.43 | 0.05 | 87 | 1010.4 |
| 20260905050518 | 16 | 302 | 14.5 | 33.8 | 0.00 | 0.43 | 0.05 | 87 | 1010.3 |
| 20260905050017 | 16 | 286 | 16.1 | 33.8 | 0.00 | 0.43 | 0.05 | 87 | 1010.3 |
| 20260905045518 | 16 | 198 | 8.0 | 41.8 | 0.00 | 0.43 | 0.05 | 87 | 1010.2 |
| 20260905044515 | 16 | 255 | 22.5 | 37.0 | 0.00 | 0.43 | 0.05 | 87 | 1010.2 |
| 20260905044018 | 16 | 302 | 20.9 | 49.9 | 0.00 | 0.43 | 0.05 | 88 | 1010.0 |
| 20260905043513 | 16 | 254 | 14.5 | 49.9 | 0.00 | 0.43 | 0.05 | 88 | 1009.9 |
| 20260905043012 | 16 | 298 | 12.9 | 37.0 | 0.00 | 0.43 | 0.05 | 88 | 1009.8 |
| 20260905042511 | 16 | 290 | 19.3 | 37.0 | 0.00 | 0.43 | 0.05 | 88 | 1009.8 |
| 20260905042011 | 16 | 286 | 12.9 | 56.3 | 0.00 | 0.43 | 0.05 | 88 | 1009.8 |
| 20260905041512 | 16 | 276 | 22.5 | 56.3 | 0.00 | 0.43 | 0.05 | 88 | 1009.8 |
| 20260905041008 | 16 | 246 | 20.9 | 41.8 | 0.00 | 0.43 | 0.05 | 88 | 1009.8 |
| 20260905040507 | 16 | 241 | 16.1 | 51.5 | 0.00 | 0.43 | 0.05 | 88 | 1009.7 |
| 20260905040007 | 16 | 306 | 22.5 | 51.5 | 0.00 | 0.43 | 0.05 | 88 | 1009.5 |
| 20260905035507 | 16 | 305 | 19.3 | 38.6 | 0.00 | 0.43 | 0.05 | 88 | 1009.4 |
| 20260905035004 | 16 | 277 | 16.1 | 33.8 | 0.00 | 0.43 | 0.05 | 88 | 1009.5 |
| 20260905034505 | 16 | 296 | 17.7 | 32.2 | 0.00 | 0.43 | 0.05 | 88 | 1009.3 |
| 20260905034002 | 16 | 311 | 9.7 | 35.4 | 0.00 | 0.43 | 0.05 | 88 | 1009.1 |
| 20260905033502 | 16 | 221 | 16.1 | 43.5 | 0.00 | 0.43 | 0.05 | 88 | 1009.1 |
| 20260905033002 | 16 | 250 | 16.1 | 43.5 | 0.00 | 0.43 | 0.05 | 88 | 1009.1 |
| 20260905032502 | 16 | 254 | 12.9 | 40.2 | 0.00 | 0.43 | 0.05 | 88 | 1009.1 |
| 20260905032103 | 16 | 250 | 16.1 | 40.2 | 0.00 | 0.43 | 0.05 | 88 | 1009.2 |
| 20260905031601 | 16 | 305 | 17.7 | 54.7 | 0.00 | 0.43 | 0.05 | 88 | 1009.0 |
| 20260905031100 | 16 | 290 | 20.9 | 54.7 | 0.00 | 0.43 | 0.05 | 88 | 1008.9 |
| 20260905030557 | 16 | 269 | 20.9 | 46.7 | 0.00 | 0.43 | 0.05 | 89 | 1008.7 |
| 20260905030104 | 16 | 261 | 20.9 | 62.8 | 0.00 | 0.43 | 0.05 | 89 | 1008.5 |
| 20260905025557 | 16 | 261 | 17.7 | 62.8 | 0.00 | 0.43 | 0.05 | 89 | 1008.6 |
| 20260905025056 | 16 | 302 | 19.3 | 38.6 | 0.00 | 0.43 | 0.05 | 89 | 1008.5 |
| 20260905024057 | 16 | 259 | 14.5 | 40.2 | 0.00 | 0.43 | 0.05 | 89 | 1008.4 |
| 20260905023555 | 16 | 266 | 14.5 | 43.5 | 0.00 | 0.43 | 0.05 | 90 | 1008.4 |
| 20260905023057 | 16 | 275 | 19.3 | 43.5 | 0.00 | 0.43 | 0.05 | 90 | 1008.2 |
| 20260905022552 | 16 | 284 | 9.7 | 38.6 | 0.00 | 0.43 | 0.05 | 90 | 1008.2 |
| 20260905022052 | 16 | 271 | 19.3 | 40.2 | 0.00 | 0.43 | 0.05 | 91 | 1008.4 |
| 20260905021552 | 16 | 248 | 16.1 | 40.2 | 0.00 | 0.43 | 0.05 | 91 | 1008.3 |
| 20260905021051 | 16 | 236 | 14.5 | 46.7 | 0.00 | 0.43 | 0.05 | 91 | 1008.1 |
| 20260905020550 | 16 | 234 | 14.5 | 46.7 | 0.00 | 0.43 | 0.05 | 91 | 1008.1 |
| 20260905020052 | 16 | 266 | 11.3 | 45.1 | 0.00 | 0.43 | 0.05 | 91 | 1008.1 |
| 20260905015549 | 16 | 288 | 14.5 | 41.8 | 0.00 | 0.43 | 0.05 | 91 | 1008.1 |
| 20260905015048 | 16 | 294 | 19.3 | 41.8 | 0.00 | 0.43 | 0.05 | 91 | 1008.2 |
| 20260905014546 | 16 | 238 | 14.5 | 35.4 | 0.00 | 0.43 | 0.05 | 91 | 1008.2 |
| 20260905014049 | 16 | 207 | 19.3 | 43.5 | 0.00 | 0.43 | 0.05 | 92 | 1008.0 |
| 20260905013546 | 16 | 253 | 20.9 | 43.5 | 0.00 | 0.43 | 0.05 | 92 | 1007.9 |
| 20260905013050 | 16 | 254 | 16.1 | 43.5 | 0.00 | 0.43 | 0.05 | 92 | 1008.1 |
| 20260905012545 | 16 | 207 | 14.5 | 43.5 | 0.00 | 0.43 | 0.05 | 92 | 1007.9 |
| 20260905012045 | 16 | 222 | 11.3 | 45.1 | 0.00 | 0.43 | 0.05 | 92 | 1007.9 |
| 20260905011553 | 16 | 205 | 20.9 | 45.1 | 0.00 | 0.43 | 0.05 | 92 | 1008.0 |
| 20260905011048 | 16 | 284 | 16.1 | 41.8 | 0.00 | 0.43 | 0.05 | 92 | 1007.8 |
| 20260905010546 | 16 | 282 | 19.3 | 37.0 | 0.03 | 0.43 | 0.05 | 92 | 1007.9 |
| 20260905010044 | 16 | 321 | 14.5 | 46.7 | 0.03 | 0.43 | 0.05 | 92 | 1007.6 |
| 20260905005543 | 16 | 258 | 14.5 | 46.7 | 0.03 | 0.43 | 0.05 | 92 | 1007.4 |
| 20260905005041 | 16 | 300 | 14.5 | 40.2 | 0.03 | 0.43 | 0.05 | 91 | 1007.6 |
| 20260905004549 | 16 | 245 | 22.5 | 43.5 | 0.03 | 0.43 | 0.05 | 91 | 1007.9 |
| 20260905003538 | 16 | 265 | 14.5 | 51.5 | 0.03 | 0.43 | 0.05 | 91 | 1008.0 |
| 20260905003037 | 16 | 275 | 20.9 | 41.8 | 0.03 | 0.43 | 0.05 | 91 | 1007.9 |
| 20260905002536 | 16 | 269 | 22.5 | 40.2 | 0.03 | 0.43 | 0.05 | 91 | 1007.8 |
| 20260905002034 | 16 | 227 | 17.7 | 45.1 | 0.03 | 0.43 | 0.05 | 90 | 1007.3 |
| 20260905001533 | 16 | 238 | 22.5 | 45.1 | 0.03 | 0.43 | 0.05 | 90 | 1007.1 |
| 20260905001037 | 16 | 253 | 12.9 | 57.9 | 0.03 | 0.43 | 0.05 | 90 | 1006.8 |
| 20260905000532 | 16 | 281 | 19.3 | 57.9 | 0.00 | 0.41 | 0.03 | 89 | 1007.0 |
| 20260905000032 | 16 | 223 | 20.9 | 51.5 | 0.00 | 0.41 | 0.03 | 89 | 1006.7 |
| 20260904235531 | 16 | 220 | 17.7 | 45.1 | 0.00 | 0.41 | 0.03 | 89 | 1007.0 |
| 20260904235033 | 16 | 284 | 22.5 | 45.1 | 0.00 | 0.41 | 0.03 | 89 | 1007.0 |
| 20260904234539 | 16 | 252 | 19.3 | 48.3 | 0.00 | 0.41 | 0.03 | 89 | 1006.9 |
| 20260904234027 | 16 | 242 | 14.5 | 48.3 | 0.03 | 0.41 | 0.03 | 88 | 1006.6 |
| 20260904233527 | 16 | 343 | 20.9 | 48.3 | 0.03 | 0.41 | 0.03 | 88 | 1006.7 |
| 20260904233036 | 16 | 257 | 20.9 | 45.1 | 0.03 | 0.41 | 0.03 | 88 | 1006.7 |
| 20260904232526 | 16 | 247 | 17.7 | 46.7 | 0.03 | 0.41 | 0.03 | 88 | 1006.8 |
| 20260904232028 | 17 | 253 | 16.1 | 46.7 | 0.03 | 0.41 | 0.03 | 89 | 1006.6 |
| 20260904231523 | 17 | 299 | 19.3 | 43.5 | 0.03 | 0.41 | 0.03 | 89 | 1006.7 |
| 20260904231023 | 17 | 262 | 20.9 | 51.5 | 0.03 | 0.41 | 0.03 | 89 | 1006.5 |
| 20260904230522 | 17 | 234 | 25.7 | 51.5 | 0.03 | 0.41 | 0.03 | 89 | 1006.4 |
| 20260904230027 | 17 | 248 | 19.3 | 48.3 | 0.03 | 0.41 | 0.03 | 90 | 1006.3 |
| 20260904225525 | 17 | 265 | 16.1 | 43.5 | 0.03 | 0.41 | 0.03 | 90 | 1006.2 |
| 20260904225020 | 17 | 251 | 16.1 | 40.2 | 0.03 | 0.41 | 0.03 | 90 | 1006.0 |
| 20260904224526 | 17 | 280 | 12.9 | 41.8 | 0.03 | 0.41 | 0.03 | 90 | 1006.0 |
| 20260904224016 | 17 | 269 | 17.7 | 41.8 | 0.00 | 0.38 | 0.00 | 90 | 1005.7 |
| 20260904223515 | 17 | 231 | 17.7 | 43.5 | 0.00 | 0.38 | 0.00 | 91 | 1005.8 |
| 20260904223014 | 17 | 193 | 17.7 | 41.8 | 0.00 | 0.38 | 0.00 | 91 | 1005.9 |
| 20260904222511 | 18 | 299 | 14.5 | 41.8 | 0.00 | 0.38 | 0.00 | 92 | 1005.7 |
| 20260904222011 | 18 | 224 | 12.9 | 37.0 | 0.00 | 0.38 | 0.00 | 92 | 1005.5 |
| 20260904221509 | 18 | 248 | 17.7 | 48.3 | 0.00 | 0.38 | 0.00 | 92 | 1005.4 |
| 20260904221009 | 18 | 261 | 11.3 | 48.3 | 0.00 | 0.38 | 0.00 | 92 | 1004.9 |
| 20260904220508 | 18 | 236 | 16.1 | 37.0 | 0.00 | 0.38 | 0.00 | 93 | 1005.0 |
| 20260904220006 | 18 | 218 | 17.7 | 37.0 | 0.00 | 0.38 | 0.38 | 93 | 1005.1 |
| 20260904215507 | 18 | 257 | 12.9 | 38.6 | 0.00 | 0.38 | 0.38 | 93 | 1005.3 |
| 20260904215006 | 18 | 217 | 11.3 | 33.8 | 0.00 | 0.38 | 0.38 | 93 | 1005.4 |
| 20260904214510 | 17 | 221 | 8.0 | 29.0 | 0.00 | 0.38 | 0.38 | 93 | 1005.2 |
| 20260904214009 | 17 | 232 | 16.1 | 33.8 | 0.00 | 0.38 | 0.38 | 93 | 1005.3 |
| 20260904213606 | 17 | 223 | 12.9 | 37.0 | 0.00 | 0.38 | 0.38 | 93 | 1005.2 |
| 20260904213006 | 17 | 244 | 17.7 | 37.0 | 0.00 | 0.38 | 0.38 | 93 | 1004.9 |
| 20260904212504 | 17 | 196 | 6.4 | 35.4 | 0.00 | 0.38 | 0.38 | 93 | 1005.1 |
| 20260904212008 | 17 | 262 | 11.3 | 33.8 | 0.00 | 0.38 | 0.38 | 92 | 1005.3 |
| 20260904211503 | 17 | 221 | 14.5 | 35.4 | 0.00 | 0.38 | 0.38 | 92 | 1005.5 |
| 20260904211005 | 17 | 217 | 12.9 | 35.4 | 0.00 | 0.38 | 0.38 | 92 | 1005.6 |
| 20260904210504 | 17 | 220 | 9.7 | 19.3 | 0.00 | 0.38 | 0.38 | 92 | 1005.5 |
| 20260904210004 | 17 | 224 | 11.3 | 25.7 | 0.00 | 0.38 | 0.38 | 92 | 1005.6 |
| 20260904205503 | 17 | 238 | 9.7 | 20.9 | 0.00 | 0.38 | 0.38 | 92 | 1005.3 |
| 20260904205007 | 17 | 229 | 9.7 | 20.9 | 0.00 | 0.38 | 0.38 | 92 | 1005.2 |
| 20260904204502 | 17 | 225 | 4.8 | 24.1 | 0.00 | 0.38 | 0.38 | 92 | 1005.2 |
| 20260904204002 | 17 | 244 | 9.7 | 24.1 | 0.03 | 0.38 | 0.38 | 92 | 1005.1 |
| 20260904203502 | 17 | 251 | 8.0 | 30.6 | 0.03 | 0.38 | 0.38 | 91 | 1005.2 |
| 20260904203002 | 17 | 273 | 8.0 | 24.1 | 0.05 | 0.38 | 0.38 | 91 | 1005.2 |
| 20260904202502 | 17 | 236 | 6.4 | 33.8 | 0.10 | 0.38 | 0.38 | 92 | 1005.4 |
| 20260904202002 | 18 | 265 | 9.7 | 33.8 | 0.25 | 0.38 | 0.38 | 91 | 1005.4 |
| 20260904201501 | 18 | 310 | 12.9 | 33.8 | 0.33 | 0.38 | 0.38 | 91 | 1005.5 |
| 20260904201000 | 18 | 309 | 19.3 | 37.0 | 0.38 | 0.38 | 0.38 | 91 | 1005.8 |
| 20260904200501 | 18 | 298 | 19.3 | 37.0 | 0.38 | 0.38 | 0.38 | 91 | 1005.8 |
| 20260904195600 | 18 | 273 | 16.1 | 56.3 | 0.38 | 0.38 | 0.38 | 91 | 1005.6 |
| 20260904195502 | 18 | 286 | 14.5 | 56.3 | 0.38 | 0.38 | 0.38 | 91 | 1005.5 |